FLOCK 2K-15 (42890 NORAD) Tracking and Keplerian Element Data

This shows tracking and keplerian element data for the satellite.

Feedback or suggestion? Click here.




ElementValue
Catalog42890
NameFLOCK 2K-15
Epoch Orbit23489
Epoch Day262.17243376
Epoch Year2021
RAAN110.7123
Inclination96.8417
Eccentricity0.0011294
Argument of Perigee76.5984
Mean Anonmoly283.6525
Mean Motion15.475493
Decay Rate6.587E-05
L11 42890U 17042BT 21262.17243376 .00006587 00000-0 12937-3 0 9994
L22 42890 96.8417 110.7123 0011294 76.5984 283.6525 15.47549300234896

Live tracking and technical data element details for FLOCK 2K-15 (NORAD 42890). FLOCK 2K-15 can be tracked NOW for your location showing map with azimuth and elevation plus other details from your city location.

Track the satellite on the map from your city or location and see movement details for azimuth, elevation, latitude, longitude, range, height, and movement on the map or in text.







IsCatalogInMostPopularTable: catalog: 42890, numindb: 538
Update: records affected: 1



GetName: 42890 FLOCK 2K-15

Hit Count: updated at: Sun, 26 Sep 2021 01:15:19 GMT